SHIJIAN-17 (SJ-17)

Last updated on Thu Oct 30 2025 00:02:50 GMT+0000 (Coordinated Universal Time)

1 41838U 16065A 25302.74166479 .00000078 00000+0 00000+0 0 9991 2 41838 5.1622 75.3704 0002276 202.7744 209.2964 1.00275790 32908
UTC large
Height (km)
Speed (km/s)
/
Latitude / Longitude
Inclination (degrees)
Orbital Period (minutes)
Azimuth
Elevation
Range (km)
Doppler Factor

Next 0 passes for location: London (51.5072 / 0.1276)

Sorry there are no passes over London.